Year,Month,Day,Hour,Minute,Value (Times are PST for windspeed in km/hr)
2012,03,01,00,00,2.50
2012,03,01,00,01,0.80
2012,03,01,00,02,0.00
2012,03,01,00,03,0.10
2012,03,01,00,04,0.10
2012,03,01,00,05,0.20
2012,03,01,00,06,0.80
2012,03,01,00,07,0.60
2012,03,01,00,08,0.00
2012,03,01,00,09,0.10
2012,03,01,00,10,1.00
2012,03,01,00,11,3.10
2012,03,01,00,12,0.70
2012,03,01,00,13,0.00
2012,03,01,00,14,0.00
2012,03,01,00,15,0.00
2012,03,01,00,16,0.00
2012,03,01,00,17,0.00
2012,03,01,00,18,0.00
2012,03,01,00,19,0.00
2012,03,01,00,20,0.00
2012,03,01,00,21,0.00
2012,03,01,00,22,0.00
2012,03,01,00,23,0.00
2012,03,01,00,24,0.00
2012,03,01,00,25,0.00
2012,03,01,00,26,0.00
2012,03,01,00,27,0.00
2012,03,01,00,28,0.00
2012,03,01,00,29,0.00
2012,03,01,00,30,0.00
2012,03,01,00,31,0.00
2012,03,01,00,32,0.00
2012,03,01,00,33,0.00
2012,03,01,00,34,0.00
2012,03,01,00,35,0.00
2012,03,01,00,36,0.00
2012,03,01,00,37,0.00
2012,03,01,00,38,0.00
2012,03,01,00,39,0.00
2012,03,01,00,40,0.00
2012,03,01,00,41,0.00
2012,03,01,00,42,0.00
2012,03,01,00,43,0.00
2012,03,01,00,44,0.20
2012,03,01,00,45,0.30
2012,03,01,00,46,0.90
2012,03,01,00,47,2.00
2012,03,01,00,48,1.80
2012,03,01,00,49,0.50
2012,03,01,00,50,0.00
2012,03,01,00,51,0.10
2012,03,01,00,52,0.00
2012,03,01,00,53,0.00
2012,03,01,00,54,0.00
2012,03,01,00,55,0.00
2012,03,01,00,56,0.00
2012,03,01,00,57,0.00
2012,03,01,00,58,0.00
2012,03,01,00,59,0.00
2012,03,01,01,00,0.00
2012,03,01,01,01,0.00
2012,03,01,01,02,0.00
2012,03,01,01,03,0.00
2012,03,01,01,04,0.00
2012,03,01,01,05,0.00
2012,03,01,01,06,0.00
2012,03,01,01,07,0.00
2012,03,01,01,08,0.00
2012,03,01,01,09,0.00
2012,03,01,01,10,0.00
2012,03,01,01,11,0.00
2012,03,01,01,12,0.00
2012,03,01,01,13,0.00
2012,03,01,01,14,0.00
2012,03,01,01,15,0.00
2012,03,01,01,16,0.00
2012,03,01,01,17,0.00
2012,03,01,01,18,0.00
2012,03,01,01,19,0.00
2012,03,01,01,20,0.00
2012,03,01,01,21,0.00
2012,03,01,01,22,0.00
2012,03,01,01,23,0.00
2012,03,01,01,24,0.10
2012,03,01,01,25,0.30
2012,03,01,01,26,0.00
2012,03,01,01,27,0.00
2012,03,01,01,28,0.00
2012,03,01,01,29,0.00
2012,03,01,01,30,0.00
2012,03,01,01,31,0.00
2012,03,01,01,32,0.00
2012,03,01,01,33,1.00
2012,03,01,01,34,1.90
2012,03,01,01,35,0.40
2012,03,01,01,36,1.40
2012,03,01,01,37,1.30
2012,03,01,01,38,0.00
2012,03,01,01,39,0.00
2012,03,01,01,40,0.00
2012,03,01,01,41,0.00
2012,03,01,01,42,0.00
2012,03,01,01,43,0.00
2012,03,01,01,44,1.10
2012,03,01,01,45,2.20
2012,03,01,01,46,0.00
2012,03,01,01,47,0.40
2012,03,01,01,48,1.50
2012,03,01,01,49,1.80
2012,03,01,01,50,0.00
2012,03,01,01,51,0.00
2012,03,01,01,52,0.00
2012,03,01,01,53,0.00
2012,03,01,01,54,0.00
2012,03,01,01,55,0.40
2012,03,01,01,56,0.50
2012,03,01,01,57,1.00
2012,03,01,01,58,4.00
2012,03,01,01,59,3.20
2012,03,01,02,00,2.60
2012,03,01,02,01,2.00
2012,03,01,02,02,2.70
2012,03,01,02,03,3.10
2012,03,01,02,04,2.30
2012,03,01,02,05,1.90
2012,03,01,02,06,0.60
2012,03,01,02,07,0.50
2012,03,01,02,08,2.10
2012,03,01,02,09,0.80
2012,03,01,02,10,0.20
2012,03,01,02,11,0.60
2012,03,01,02,12,1.00
2012,03,01,02,13,0.90
2012,03,01,02,14,2.30
2012,03,01,02,15,0.50
2012,03,01,02,16,0.00
2012,03,01,02,17,0.00
2012,03,01,02,18,0.00
2012,03,01,02,19,2.90
2012,03,01,02,20,3.40
2012,03,01,02,21,1.70
2012,03,01,02,22,0.00
2012,03,01,02,23,0.00
2012,03,01,02,24,0.00
2012,03,01,02,25,0.00
2012,03,01,02,26,0.60
2012,03,01,02,27,0.00
2012,03,01,02,28,0.00
2012,03,01,02,29,0.30
2012,03,01,02,30,0.80
2012,03,01,02,31,1.00
2012,03,01,02,32,1.10
2012,03,01,02,33,0.90
2012,03,01,02,34,2.30
2012,03,01,02,35,2.30
2012,03,01,02,36,1.20
2012,03,01,02,37,1.10
2012,03,01,02,38,1.40
2012,03,01,02,39,0.00
2012,03,01,02,40,0.00
2012,03,01,02,41,0.40
2012,03,01,02,42,0.40
2012,03,01,02,43,3.90
2012,03,01,02,44,1.20
2012,03,01,02,45,0.70
2012,03,01,02,46,1.30
2012,03,01,02,47,1.70
2012,03,01,02,48,1.20
2012,03,01,02,49,0.70
2012,03,01,02,50,0.10
2012,03,01,02,51,0.20
2012,03,01,02,52,1.20
2012,03,01,02,53,1.90
2012,03,01,02,54,3.40
2012,03,01,02,55,0.40
2012,03,01,02,56,0.00
2012,03,01,02,57,0.00
2012,03,01,02,58,0.00
2012,03,01,02,59,0.20
2012,03,01,03,00,0.00
2012,03,01,03,01,0.00
2012,03,01,03,02,0.00
2012,03,01,03,03,0.00
2012,03,01,03,04,0.90
2012,03,01,03,05,0.20
2012,03,01,03,06,0.00
2012,03,01,03,07,0.00
2012,03,01,03,08,0.00
2012,03,01,03,09,0.00
2012,03,01,03,10,0.00
2012,03,01,03,11,0.00
2012,03,01,03,12,0.00
2012,03,01,03,13,0.00
2012,03,01,03,14,0.00
2012,03,01,03,15,0.00
2012,03,01,03,16,0.00
2012,03,01,03,17,0.00
2012,03,01,03,18,0.00
2012,03,01,03,19,0.00
2012,03,01,03,20,0.00
2012,03,01,03,21,0.00
2012,03,01,03,22,0.00
2012,03,01,03,23,0.00
2012,03,01,03,24,0.00
2012,03,01,03,25,0.00
2012,03,01,03,26,0.00
2012,03,01,03,27,0.20
2012,03,01,03,28,0.20
2012,03,01,03,29,0.00
2012,03,01,03,30,0.40
2012,03,01,03,31,2.10
2012,03,01,03,32,0.00
2012,03,01,03,33,0.00
2012,03,01,03,34,0.00
2012,03,01,03,35,0.00
2012,03,01,03,36,0.00
2012,03,01,03,37,0.00
2012,03,01,03,38,0.00
2012,03,01,03,39,0.00
2012,03,01,03,40,0.00
2012,03,01,03,41,0.00
2012,03,01,03,42,0.00
2012,03,01,03,43,0.00
2012,03,01,03,44,0.00
2012,03,01,03,45,0.00
2012,03,01,03,46,0.00
2012,03,01,03,47,0.10
2012,03,01,03,48,0.00
2012,03,01,03,49,0.00
2012,03,01,03,50,0.00
2012,03,01,03,51,0.00
2012,03,01,03,52,0.00
2012,03,01,03,53,0.00
2012,03,01,03,54,0.00
2012,03,01,03,55,0.00
2012,03,01,03,56,0.00
2012,03,01,03,57,0.00
2012,03,01,03,58,0.00
2012,03,01,03,59,0.00
2012,03,01,04,00,0.00
2012,03,01,04,01,0.00
2012,03,01,04,02,0.00
2012,03,01,04,03,0.00
2012,03,01,04,04,0.00
2012,03,01,04,05,0.00
2012,03,01,04,06,0.00
2012,03,01,04,07,0.00
2012,03,01,04,08,0.00
2012,03,01,04,09,0.00
2012,03,01,04,10,0.00
2012,03,01,04,11,0.00
2012,03,01,04,12,0.30
2012,03,01,04,13,0.40
2012,03,01,04,14,0.00
2012,03,01,04,15,0.10
2012,03,01,04,16,0.30
2012,03,01,04,17,0.00
2012,03,01,04,18,0.80
2012,03,01,04,19,2.60
2012,03,01,04,20,2.70
2012,03,01,04,21,2.60
2012,03,01,04,22,1.70
2012,03,01,04,23,1.10
2012,03,01,04,24,1.40
2012,03,01,04,25,2.10
2012,03,01,04,26,4.20
2012,03,01,04,27,2.60
2012,03,01,04,28,0.20
2012,03,01,04,29,3.10
2012,03,01,04,30,4.00
2012,03,01,04,31,2.00
2012,03,01,04,32,6.40
2012,03,01,04,33,6.70
2012,03,01,04,34,6.80
2012,03,01,04,35,3.30
2012,03,01,04,36,1.00
2012,03,01,04,37,1.10
2012,03,01,04,38,2.80
2012,03,01,04,39,5.10
2012,03,01,04,40,3.90
2012,03,01,04,41,2.10
2012,03,01,04,42,2.80
2012,03,01,04,43,3.00
2012,03,01,04,44,5.10
2012,03,01,04,45,4.70
2012,03,01,04,46,3.70
2012,03,01,04,47,1.80
2012,03,01,04,48,1.00
2012,03,01,04,49,5.10
2012,03,01,04,50,1.80
2012,03,01,04,51,0.00
2012,03,01,04,52,0.00
2012,03,01,04,53,0.00
2012,03,01,04,54,2.10
2012,03,01,04,55,0.10
2012,03,01,04,56,0.00
2012,03,01,04,57,0.80
2012,03,01,04,58,1.20
2012,03,01,04,59,1.10
2012,03,01,05,00,2.60
2012,03,01,05,01,2.20
2012,03,01,05,02,3.90
2012,03,01,05,03,3.20
2012,03,01,05,04,0.60
2012,03,01,05,05,1.90
2012,03,01,05,06,1.40
2012,03,01,05,07,2.90
2012,03,01,05,08,3.10
2012,03,01,05,09,3.90
2012,03,01,05,10,6.50
2012,03,01,05,11,3.60
2012,03,01,05,12,8.60
2012,03,01,05,13,7.30
2012,03,01,05,14,8.50
2012,03,01,05,15,7.00
2012,03,01,05,16,8.20
2012,03,01,05,17,7.20
2012,03,01,05,18,5.50
2012,03,01,05,19,4.30
2012,03,01,05,20,4.00
2012,03,01,05,21,2.90
2012,03,01,05,22,1.90
2012,03,01,05,23,5.10
2012,03,01,05,24,3.90
2012,03,01,05,25,3.10
2012,03,01,05,26,4.80
2012,03,01,05,27,1.40
2012,03,01,05,28,2.70
2012,03,01,05,29,1.30
2012,03,01,05,30,1.50
2012,03,01,05,31,0.10
2012,03,01,05,32,0.30
2012,03,01,05,33,0.00
2012,03,01,05,34,0.00
2012,03,01,05,35,2.10
2012,03,01,05,36,0.20
2012,03,01,05,37,0.70
2012,03,01,05,38,2.60
2012,03,01,05,39,2.70
2012,03,01,05,40,0.60
2012,03,01,05,41,2.50
2012,03,01,05,42,1.00
2012,03,01,05,43,1.00
2012,03,01,05,44,2.40
2012,03,01,05,45,2.70
2012,03,01,05,46,2.00
2012,03,01,05,47,0.60
2012,03,01,05,48,2.30
2012,03,01,05,49,0.20
2012,03,01,05,50,0.00
2012,03,01,05,51,0.60
2012,03,01,05,52,0.70
2012,03,01,05,53,0.80
2012,03,01,05,54,0.50
2012,03,01,05,55,2.20
2012,03,01,05,56,2.40
2012,03,01,05,57,3.40
2012,03,01,05,58,3.30
2012,03,01,05,59,3.00
2012,03,01,06,00,1.70
2012,03,01,06,01,6.80
2012,03,01,06,02,3.00
2012,03,01,06,03,0.90
2012,03,01,06,04,1.40
2012,03,01,06,05,2.10
2012,03,01,06,06,2.20
2012,03,01,06,07,1.40
2012,03,01,06,08,0.60
2012,03,01,06,09,0.50
2012,03,01,06,10,0.20
2012,03,01,06,11,1.30
2012,03,01,06,12,2.50
2012,03,01,06,13,1.70
2012,03,01,06,14,1.40
2012,03,01,06,15,0.20
2012,03,01,06,16,5.40
2012,03,01,06,17,5.70
2012,03,01,06,18,3.90
2012,03,01,06,19,6.00
2012,03,01,06,20,0.80
2012,03,01,06,21,5.80
2012,03,01,06,22,5.10
2012,03,01,06,23,6.00
2012,03,01,06,24,6.00
2012,03,01,06,25,4.20
2012,03,01,06,26,5.40
2012,03,01,06,27,5.10
2012,03,01,06,28,3.50
2012,03,01,06,29,7.20
2012,03,01,06,30,5.60
2012,03,01,06,31,7.90
2012,03,01,06,32,4.80
2012,03,01,06,33,6.90
2012,03,01,06,34,9.30
2012,03,01,06,35,5.50
2012,03,01,06,36,6.90
2012,03,01,06,37,2.20
2012,03,01,06,38,3.10
2012,03,01,06,39,5.60
2012,03,01,06,40,5.30
2012,03,01,06,41,4.40
2012,03,01,06,42,1.40
2012,03,01,06,43,5.70
2012,03,01,06,44,3.30
2012,03,01,06,45,3.60
2012,03,01,06,46,0.50
2012,03,01,06,47,0.90
2012,03,01,06,48,4.30
2012,03,01,06,49,4.30
2012,03,01,06,50,2.40
2012,03,01,06,51,4.60
2012,03,01,06,52,7.30
2012,03,01,06,53,2.00
2012,03,01,06,54,0.20
2012,03,01,06,55,2.50
2012,03,01,06,56,6.40
2012,03,01,06,57,4.80
2012,03,01,06,58,4.20
2012,03,01,06,59,3.80
2012,03,01,07,00,0.30
2012,03,01,07,01,2.90
2012,03,01,07,02,2.00
2012,03,01,07,03,2.90
2012,03,01,07,04,1.50
2012,03,01,07,05,0.10
2012,03,01,07,06,0.90
2012,03,01,07,07,0.70
2012,03,01,07,08,0.20
2012,03,01,07,09,2.40
2012,03,01,07,10,2.00
2012,03,01,07,11,0.60
2012,03,01,07,12,2.20
2012,03,01,07,13,1.10
2012,03,01,07,14,1.00
2012,03,01,07,15,2.20
2012,03,01,07,16,0.90
2012,03,01,07,17,0.10
2012,03,01,07,18,0.00
2012,03,01,07,19,2.50
2012,03,01,07,20,2.60
2012,03,01,07,21,3.60
2012,03,01,07,22,1.60
2012,03,01,07,23,0.20
2012,03,01,07,24,1.90
2012,03,01,07,25,0.60
2012,03,01,07,26,6.10
2012,03,01,07,27,4.80
2012,03,01,07,28,6.40
2012,03,01,07,29,7.00
2012,03,01,07,30,3.20
2012,03,01,07,31,1.00
2012,03,01,07,32,4.40
2012,03,01,07,33,6.80
2012,03,01,07,34,1.40
2012,03,01,07,35,3.90
2012,03,01,07,36,2.70
2012,03,01,07,37,0.80
2012,03,01,07,38,2.30
2012,03,01,07,39,1.80
2012,03,01,07,40,1.80
2012,03,01,07,41,0.00
2012,03,01,07,42,0.00
2012,03,01,07,43,3.20
2012,03,01,07,44,0.00
2012,03,01,07,45,0.00
2012,03,01,07,46,0.00
2012,03,01,07,47,0.00
2012,03,01,07,48,0.00
2012,03,01,07,49,0.00
2012,03,01,07,50,0.00
2012,03,01,07,51,0.00
2012,03,01,07,52,0.00
2012,03,01,07,53,0.00
2012,03,01,07,54,0.00
2012,03,01,07,55,0.00
2012,03,01,07,56,0.00
2012,03,01,07,57,0.00
2012,03,01,07,58,1.70
2012,03,01,07,59,1.60
2012,03,01,08,00,0.80
2012,03,01,08,01,0.30
2012,03,01,08,02,0.10
2012,03,01,08,03,1.20
2012,03,01,08,04,0.10
2012,03,01,08,05,2.00
2012,03,01,08,06,1.40
2012,03,01,08,07,0.70
2012,03,01,08,08,0.00
2012,03,01,08,09,0.90
2012,03,01,08,10,0.50
2012,03,01,08,11,0.20
2012,03,01,08,12,1.40
2012,03,01,08,13,0.10
2012,03,01,08,14,0.30
2012,03,01,08,15,1.40
2012,03,01,08,16,0.20
2012,03,01,08,17,0.00
2012,03,01,08,18,0.00
2012,03,01,08,19,0.20
2012,03,01,08,20,0.10
2012,03,01,08,21,0.10
2012,03,01,08,22,0.10
2012,03,01,08,23,0.70
2012,03,01,08,24,0.20
2012,03,01,08,25,1.40
2012,03,01,08,26,0.40
2012,03,01,08,27,1.10
2012,03,01,08,28,0.00
2012,03,01,08,29,0.00
2012,03,01,08,30,0.90
2012,03,01,08,31,1.30
2012,03,01,08,32,0.00
2012,03,01,08,33,0.00
2012,03,01,08,34,0.00
2012,03,01,08,35,0.20
2012,03,01,08,36,0.40
2012,03,01,08,37,2.60
2012,03,01,08,38,0.20
2012,03,01,08,39,0.00
2012,03,01,08,40,1.60
2012,03,01,08,41,1.70
2012,03,01,08,42,0.90
2012,03,01,08,43,2.40
2012,03,01,08,44,1.00
2012,03,01,08,45,1.90
2012,03,01,08,46,1.70
2012,03,01,08,47,3.60
2012,03,01,08,48,4.00
2012,03,01,08,49,0.50
2012,03,01,08,50,1.90
2012,03,01,08,51,0.20
2012,03,01,08,52,0.00
2012,03,01,08,53,0.20
2012,03,01,08,54,0.80
2012,03,01,08,55,0.30
2012,03,01,08,56,0.90
2012,03,01,08,57,1.20
2012,03,01,08,58,2.30
2012,03,01,08,59,1.80
2012,03,01,09,00,1.60
2012,03,01,09,01,3.50
2012,03,01,09,02,4.90
2012,03,01,09,03,3.60
2012,03,01,09,04,0.10
2012,03,01,09,05,0.00
2012,03,01,09,06,1.40
2012,03,01,09,07,3.20
2012,03,01,09,08,1.50
2012,03,01,09,09,5.00
2012,03,01,09,10,2.10
2012,03,01,09,11,3.30
2012,03,01,09,12,5.20
2012,03,01,09,13,2.00
2012,03,01,09,14,1.40
2012,03,01,09,15,1.20
2012,03,01,09,16,1.60
2012,03,01,09,17,1.50
2012,03,01,09,18,0.00
2012,03,01,09,19,0.60
2012,03,01,09,20,2.30
2012,03,01,09,21,2.60
2012,03,01,09,22,2.80
2012,03,01,09,23,2.20
2012,03,01,09,24,4.60
2012,03,01,09,25,4.80
2012,03,01,09,26,4.50
2012,03,01,09,27,5.30
2012,03,01,09,28,5.30
2012,03,01,09,29,3.80
2012,03,01,09,30,0.20
2012,03,01,09,31,1.50
2012,03,01,09,32,1.90
2012,03,01,09,33,5.10
2012,03,01,09,34,7.30
2012,03,01,09,35,3.30
2012,03,01,09,36,5.50
2012,03,01,09,37,3.90
2012,03,01,09,38,4.10
2012,03,01,09,39,7.30
2012,03,01,09,40,9.90
2012,03,01,09,41,9.40
2012,03,01,09,42,7.20
2012,03,01,09,43,1.80
2012,03,01,09,44,0.60
2012,03,01,09,45,3.90
2012,03,01,09,46,8.30
2012,03,01,09,47,7.40
2012,03,01,09,48,3.90
2012,03,01,09,49,4.30
2012,03,01,09,50,3.90
2012,03,01,09,51,2.00
2012,03,01,09,52,2.90
2012,03,01,09,53,3.30
2012,03,01,09,54,0.80
2012,03,01,09,55,2.40
2012,03,01,09,56,4.60
2012,03,01,09,57,7.30
2012,03,01,09,58,5.60
2012,03,01,09,59,8.10
2012,03,01,10,00,7.50
2012,03,01,10,01,5.80
2012,03,01,10,02,4.10
2012,03,01,10,03,5.40
2012,03,01,10,04,8.10
2012,03,01,10,05,6.90
2012,03,01,10,06,3.90
2012,03,01,10,07,0.50
2012,03,01,10,08,0.40
2012,03,01,10,09,3.60
2012,03,01,10,10,4.70
2012,03,01,10,11,7.40
2012,03,01,10,12,5.80
2012,03,01,10,13,6.50
2012,03,01,10,14,4.30
2012,03,01,10,15,5.90
2012,03,01,10,16,5.50
2012,03,01,10,17,0.40
2012,03,01,10,18,1.50
2012,03,01,10,19,3.10
2012,03,01,10,20,4.40
2012,03,01,10,21,3.00
2012,03,01,10,22,1.50
2012,03,01,10,23,2.80
2012,03,01,10,24,4.40
2012,03,01,10,25,5.50
2012,03,01,10,26,6.90
2012,03,01,10,27,4.70
2012,03,01,10,28,2.50
2012,03,01,10,29,2.50
2012,03,01,10,30,4.30
2012,03,01,10,31,5.60
2012,03,01,10,32,6.40
2012,03,01,10,33,6.20
2012,03,01,10,34,3.50
2012,03,01,10,35,6.30
2012,03,01,10,36,1.10
2012,03,01,10,37,1.90
2012,03,01,10,38,0.10
2012,03,01,10,39,3.10
2012,03,01,10,40,4.60
2012,03,01,10,41,3.60
2012,03,01,10,42,5.80
2012,03,01,10,43,6.70
2012,03,01,10,44,4.70
2012,03,01,10,45,7.30
2012,03,01,10,46,3.20
2012,03,01,10,47,4.70
2012,03,01,10,48,4.10
2012,03,01,10,49,2.70
2012,03,01,10,50,3.60
2012,03,01,10,51,4.30
2012,03,01,10,52,3.40
2012,03,01,10,53,5.20
2012,03,01,10,54,7.80
2012,03,01,10,55,1.80
2012,03,01,10,56,2.40
2012,03,01,10,57,1.30
2012,03,01,10,58,4.20
2012,03,01,10,59,4.80
2012,03,01,11,00,3.40
2012,03,01,11,01,3.10
2012,03,01,11,02,4.00
2012,03,01,11,03,3.60
2012,03,01,11,04,4.00
2012,03,01,11,05,4.00
2012,03,01,11,06,2.30
2012,03,01,11,07,2.40
2012,03,01,11,08,0.90
2012,03,01,11,09,6.00
2012,03,01,11,10,3.90
2012,03,01,11,11,3.40
2012,03,01,11,12,4.70
2012,03,01,11,13,7.70
2012,03,01,11,14,2.80
2012,03,01,11,15,1.80
2012,03,01,11,16,3.00
2012,03,01,11,17,3.20
2012,03,01,11,18,1.10
2012,03,01,11,19,4.80
2012,03,01,11,20,3.90
2012,03,01,11,21,1.00
2012,03,01,11,22,6.20
2012,03,01,11,23,7.20
2012,03,01,11,24,3.50
2012,03,01,11,25,2.30
2012,03,01,11,26,4.20
2012,03,01,11,27,4.10
2012,03,01,11,28,5.40
2012,03,01,11,29,6.00
2012,03,01,11,30,5.70
2012,03,01,11,31,5.80
2012,03,01,11,32,3.90
2012,03,01,11,33,3.50
2012,03,01,11,34,4.30
2012,03,01,11,35,4.90
2012,03,01,11,36,7.90
2012,03,01,11,37,5.80
2012,03,01,11,38,9.40
2012,03,01,11,39,4.40
2012,03,01,11,40,6.60
2012,03,01,11,41,5.20
2012,03,01,11,42,1.20
2012,03,01,11,43,5.50
2012,03,01,11,44,7.00
2012,03,01,11,45,8.40
2012,03,01,11,46,1.50
2012,03,01,11,47,7.40
2012,03,01,11,48,1.80
2012,03,01,11,49,5.10
2012,03,01,11,50,2.50
2012,03,01,11,51,0.20
2012,03,01,11,52,4.00
2012,03,01,11,53,3.70
2012,03,01,11,54,5.40
2012,03,01,11,55,2.30
2012,03,01,11,56,1.60
2012,03,01,11,57,1.40
2012,03,01,11,58,3.00
2012,03,01,11,59,6.70
2012,03,01,12,00,4.30
2012,03,01,12,01,3.10
2012,03,01,12,02,7.20
2012,03,01,12,03,5.80
2012,03,01,12,04,7.00
2012,03,01,12,05,3.40
2012,03,01,12,06,2.50
2012,03,01,12,07,2.40
2012,03,01,12,08,2.70
2012,03,01,12,09,4.90
2012,03,01,12,10,7.50
2012,03,01,12,11,4.40
2012,03,01,12,12,6.20
2012,03,01,12,13,5.60
2012,03,01,12,14,4.70
2012,03,01,12,15,4.30
2012,03,01,12,16,4.00
2012,03,01,12,17,5.70
2012,03,01,12,18,7.20
2012,03,01,12,19,5.20
2012,03,01,12,20,2.60
2012,03,01,12,21,5.30
2012,03,01,12,22,6.30
2012,03,01,12,23,3.10
2012,03,01,12,24,4.40
2012,03,01,12,25,6.10
2012,03,01,12,26,6.00
2012,03,01,12,27,4.70
2012,03,01,12,28,4.50
2012,03,01,12,29,4.80
2012,03,01,12,30,2.20
2012,03,01,12,31,4.70
2012,03,01,12,32,4.40
2012,03,01,12,33,3.40
2012,03,01,12,34,4.50
2012,03,01,12,35,4.30
2012,03,01,12,36,2.80
2012,03,01,12,37,1.90
2012,03,01,12,38,2.70
2012,03,01,12,39,6.80
2012,03,01,12,40,4.80
2012,03,01,12,41,7.00
2012,03,01,12,42,4.10
2012,03,01,12,43,3.80
2012,03,01,12,44,1.00
2012,03,01,12,45,2.70
2012,03,01,12,46,1.70
2012,03,01,12,47,4.70
2012,03,01,12,48,4.40
2012,03,01,12,49,3.00
2012,03,01,12,50,1.60
2012,03,01,12,51,5.20
2012,03,01,12,52,4.70
2012,03,01,12,53,2.70
2012,03,01,12,54,1.50
2012,03,01,12,55,1.80
2012,03,01,12,56,4.40
2012,03,01,12,57,5.20
2012,03,01,12,58,6.80
2012,03,01,12,59,5.20
2012,03,01,13,00,4.70
2012,03,01,13,01,6.00
2012,03,01,13,02,2.40
2012,03,01,13,03,3.60
2012,03,01,13,04,2.60
2012,03,01,13,05,1.60
2012,03,01,13,06,7.30
2012,03,01,13,07,3.40
2012,03,01,13,08,3.10
2012,03,01,13,09,3.90
2012,03,01,13,10,4.30
2012,03,01,13,11,2.70
2012,03,01,13,12,4.20
2012,03,01,13,13,1.90
2012,03,01,13,14,5.40
2012,03,01,13,15,3.70
2012,03,01,13,16,2.80
2012,03,01,13,17,2.00
2012,03,01,13,18,1.50
2012,03,01,13,19,6.70
2012,03,01,13,20,12.80
2012,03,01,13,21,8.50
2012,03,01,13,22,6.30
2012,03,01,13,23,2.60
2012,03,01,13,24,4.60
2012,03,01,13,25,2.30
2012,03,01,13,26,7.20
2012,03,01,13,27,5.80
2012,03,01,13,28,3.10
2012,03,01,13,29,4.30
2012,03,01,13,30,3.20
2012,03,01,13,31,2.40
2012,03,01,13,32,6.30
2012,03,01,13,33,4.30
2012,03,01,13,34,5.40
2012,03,01,13,35,5.50
2012,03,01,13,36,6.00
2012,03,01,13,37,7.70
2012,03,01,13,38,3.00
2012,03,01,13,39,1.70
2012,03,01,13,40,4.40
2012,03,01,13,41,4.30
2012,03,01,13,42,4.10
2012,03,01,13,43,2.60
2012,03,01,13,44,1.90
2012,03,01,13,45,0.80
2012,03,01,13,46,1.90
2012,03,01,13,47,2.70
2012,03,01,13,48,4.70
2012,03,01,13,49,2.40
2012,03,01,13,50,2.20
2012,03,01,13,51,2.00
2012,03,01,13,52,3.90
2012,03,01,13,53,2.50
2012,03,01,13,54,4.60
2012,03,01,13,55,6.90
2012,03,01,13,56,2.40
2012,03,01,13,57,0.00
2012,03,01,13,58,1.50
2012,03,01,13,59,1.40
2012,03,01,14,00,0.90
2012,03,01,14,01,0.00
2012,03,01,14,02,1.90
2012,03,01,14,03,3.40
2012,03,01,14,04,3.00
2012,03,01,14,05,1.00
2012,03,01,14,06,1.10
2012,03,01,14,07,1.10
2012,03,01,14,08,0.50
2012,03,01,14,09,1.30
2012,03,01,14,10,4.60
2012,03,01,14,11,3.50
2012,03,01,14,12,4.10
2012,03,01,14,13,1.00
2012,03,01,14,14,2.90
2012,03,01,14,15,4.80
2012,03,01,14,16,3.30
2012,03,01,14,17,5.50
2012,03,01,14,18,1.10
2012,03,01,14,19,0.30
2012,03,01,14,20,1.90
2012,03,01,14,21,0.60
2012,03,01,14,22,0.00
2012,03,01,14,23,0.20
2012,03,01,14,24,0.00
2012,03,01,14,25,2.80
2012,03,01,14,26,4.40
2012,03,01,14,27,5.00
2012,03,01,14,28,3.00
2012,03,01,14,29,0.80
2012,03,01,14,30,3.70
2012,03,01,14,31,1.80
2012,03,01,14,32,2.60
2012,03,01,14,33,4.40
2012,03,01,14,34,0.60
2012,03,01,14,35,2.50
2012,03,01,14,36,2.90
2012,03,01,14,37,1.90
2012,03,01,14,38,3.00
2012,03,01,14,39,1.10
2012,03,01,14,40,0.80
2012,03,01,14,41,0.30
2012,03,01,14,42,0.20
2012,03,01,14,43,0.20
2012,03,01,14,44,0.90
2012,03,01,14,45,0.00
2012,03,01,14,46,0.60
2012,03,01,14,47,1.20
2012,03,01,14,48,1.30
2012,03,01,14,49,3.70
2012,03,01,14,50,1.10
2012,03,01,14,51,3.50
2012,03,01,14,52,1.90
2012,03,01,14,53,1.30
2012,03,01,14,54,1.10
2012,03,01,14,55,0.10
2012,03,01,14,56,1.10
2012,03,01,14,57,0.00
2012,03,01,14,58,0.20
2012,03,01,14,59,2.40
2012,03,01,15,00,1.60
2012,03,01,15,01,0.10
2012,03,01,15,02,3.20
2012,03,01,15,03,2.80
2012,03,01,15,04,1.40
2012,03,01,15,05,0.00
2012,03,01,15,06,0.90
2012,03,01,15,07,1.50
2012,03,01,15,08,3.00
2012,03,01,15,09,4.10
2012,03,01,15,10,5.10
2012,03,01,15,11,5.00
2012,03,01,15,12,1.40
2012,03,01,15,13,0.30
2012,03,01,15,14,1.20
2012,03,01,15,15,0.10
2012,03,01,15,16,0.20
2012,03,01,15,17,0.20
2012,03,01,15,18,1.80
2012,03,01,15,19,3.10
2012,03,01,15,20,3.10
2012,03,01,15,21,3.80
2012,03,01,15,22,2.20
2012,03,01,15,23,0.00
2012,03,01,15,24,1.30
2012,03,01,15,25,0.00
2012,03,01,15,26,1.10
2012,03,01,15,27,0.30
2012,03,01,15,28,3.60
2012,03,01,15,29,2.40
2012,03,01,15,30,0.80
2012,03,01,15,31,1.40
2012,03,01,15,32,3.50
2012,03,01,15,33,1.40
2012,03,01,15,34,2.10
2012,03,01,15,35,4.80
2012,03,01,15,36,3.70
2012,03,01,15,37,1.20
2012,03,01,15,38,3.10
2012,03,01,15,39,0.10
2012,03,01,15,40,1.10
2012,03,01,15,41,3.00
2012,03,01,15,42,0.80
2012,03,01,15,43,0.00
2012,03,01,15,44,0.00
2012,03,01,15,45,0.60
2012,03,01,15,46,0.90
2012,03,01,15,47,0.00
2012,03,01,15,48,0.10
2012,03,01,15,49,0.40
2012,03,01,15,50,0.90
2012,03,01,15,51,1.50
2012,03,01,15,52,1.50
2012,03,01,15,53,1.40
2012,03,01,15,54,0.70
2012,03,01,15,55,0.20
2012,03,01,15,56,0.60
2012,03,01,15,57,1.40
2012,03,01,15,58,0.10
2012,03,01,15,59,0.00
2012,03,01,16,00,0.00
2012,03,01,16,01,0.00
2012,03,01,16,02,0.10
2012,03,01,16,03,0.20
2012,03,01,16,04,0.00
2012,03,01,16,05,0.50
2012,03,01,16,06,1.10
2012,03,01,16,07,1.10
2012,03,01,16,08,0.00
2012,03,01,16,09,0.10
2012,03,01,16,10,0.00
2012,03,01,16,11,0.00
2012,03,01,16,12,0.10
2012,03,01,16,13,0.00
2012,03,01,16,14,0.10
2012,03,01,16,15,1.70
2012,03,01,16,16,2.00
2012,03,01,16,17,0.20
2012,03,01,16,18,2.60
2012,03,01,16,19,0.20
2012,03,01,16,20,0.00
2012,03,01,16,21,0.60
2012,03,01,16,22,1.00
2012,03,01,16,23,3.30
2012,03,01,16,24,3.50
2012,03,01,16,25,2.60
2012,03,01,16,26,0.00
2012,03,01,16,27,0.00
2012,03,01,16,28,3.00
2012,03,01,16,29,1.60
2012,03,01,16,30,5.00
2012,03,01,16,31,4.60
2012,03,01,16,32,1.00
2012,03,01,16,33,4.30
2012,03,01,16,34,3.00
2012,03,01,16,35,3.10
2012,03,01,16,36,2.70
2012,03,01,16,37,2.70
2012,03,01,16,38,0.50
2012,03,01,16,39,3.30
2012,03,01,16,40,1.90
2012,03,01,16,41,1.10
2012,03,01,16,42,0.50
2012,03,01,16,43,1.60
2012,03,01,16,44,1.90
2012,03,01,16,45,2.20
2012,03,01,16,46,3.00
2012,03,01,16,47,1.90
2012,03,01,16,48,0.90
2012,03,01,16,49,0.10
2012,03,01,16,50,0.00
2012,03,01,16,51,0.20
2012,03,01,16,52,0.30
2012,03,01,16,53,1.70
2012,03,01,16,54,2.40
2012,03,01,16,55,4.50
2012,03,01,16,56,2.50
2012,03,01,16,57,1.80
2012,03,01,16,58,1.20
2012,03,01,16,59,1.40
2012,03,01,17,00,0.40
2012,03,01,17,01,0.10
2012,03,01,17,02,0.50
2012,03,01,17,03,3.90
2012,03,01,17,04,1.00
2012,03,01,17,05,0.20
2012,03,01,17,06,2.20
2012,03,01,17,07,1.70
2012,03,01,17,08,2.30
2012,03,01,17,09,3.20
2012,03,01,17,10,1.40
2012,03,01,17,11,2.90
2012,03,01,17,12,6.00
2012,03,01,17,13,4.70
2012,03,01,17,14,5.20
2012,03,01,17,15,4.10
2012,03,01,17,16,3.30
2012,03,01,17,17,1.60
2012,03,01,17,18,4.40
2012,03,01,17,19,4.70
2012,03,01,17,20,4.40
2012,03,01,17,21,3.80
2012,03,01,17,22,3.20
2012,03,01,17,23,1.90
2012,03,01,17,24,3.80
2012,03,01,17,25,4.70
2012,03,01,17,26,5.50
2012,03,01,17,27,6.00
2012,03,01,17,28,5.90
2012,03,01,17,29,4.70
2012,03,01,17,30,2.40
2012,03,01,17,31,4.10
2012,03,01,17,32,1.00
2012,03,01,17,33,5.60
2012,03,01,17,34,5.30
2012,03,01,17,35,5.30
2012,03,01,17,36,7.20
2012,03,01,17,37,5.50
2012,03,01,17,38,4.60
2012,03,01,17,39,5.80
2012,03,01,17,40,2.10
2012,03,01,17,41,5.20
2012,03,01,17,42,5.70
2012,03,01,17,43,2.70
2012,03,01,17,44,0.50
2012,03,01,17,45,0.10
2012,03,01,17,46,1.00
2012,03,01,17,47,1.50
2012,03,01,17,48,3.00
2012,03,01,17,49,4.10
2012,03,01,17,50,5.70
2012,03,01,17,51,4.20
2012,03,01,17,52,4.30
2012,03,01,17,53,5.20
2012,03,01,17,54,6.40
2012,03,01,17,55,7.20
2012,03,01,17,56,6.40
2012,03,01,17,57,6.00
2012,03,01,17,58,3.80
2012,03,01,17,59,3.00
2012,03,01,18,00,5.50
2012,03,01,18,01,3.00
2012,03,01,18,02,2.50
2012,03,01,18,03,3.10
2012,03,01,18,04,3.40
2012,03,01,18,05,4.50
2012,03,01,18,06,3.40